Location: Équennes
(49.7375°N, 1.9622°E)
Time: 00:33:20
(UTC+00:00)

Meteor 1-27 - Pass Details

Date: 28 January 2023
Orbit: 836 x 893 km, 81.3° (Epoch: 30 March)

Event Time Altitude Azimuth Distance (km) Brightness Sun altitude
Rises 19:40:47 0° 346° (NNW) 3,513 7.7 -29.1°
Reaches altitude 10° 19:43:16 10° 344° (NNW) 2,565 6.9 -29.5°
Maximum altitude 19:49:03 69° 263° (W) 946 4.5 -30.4°
Enters shadow 19:49:41 63° 224° (SW) 978 4.5 -30.5°
